Location: Goettingen
(51.5300°N, 9.9433°E)
Time: 20:43:40
(UTC+02:00)

ISS - Pass Details

Date: 18 September 2021
Orbit: 419 x 423 km, 51.6° (Epoch: 20 September)

Event Time Altitude Azimuth Distance (km) Brightness Sun altitude
Rises 20:50:44 0° 223° (SW) 2,357 0.4 -13.5°
Reaches altitude 10° 20:52:57 10° 212° (SSW) 1,496 -0.8 -13.8°
Maximum altitude 20:55:57 30° 150° (SSE) 780 -2.8 -14.2°
Enters shadow 20:56:29 28° 130° (SE) 814 -2.9 -14.3°
